Regional Weather Roundup
Issued by NWS

Home | Current Version | Previous Version | Graphics & Text | Print | Product List | Glossary On
Versions: 1 2 3 4 5 6 7 8 9 10 11 12 13 14 15 16 17 18 19 20 21 22 23 24 25 26 27 28 29 30 31 32 33 34 35 36 37 38 39 40 41 42 43 44 45 46 47 48 49 50
000
ASUS43 KFSD 300910
RWRSD

WEATHER ROUNDUP FOR SOUTH DAKOTA
NATIONAL WEATHER SERVICE SIOUX FALLS SD
400 AM CDT SUN AUG 30 2015

NOTE: "FAIR" INDICATES FEW OR NO CLOUDS BELOW 12,000 FEET WITH NO
SIGNIFICANT WEATHER AND/OR OBSTRUCTIONS TO VISIBILITY.


SDZ001>005-009-010-012>017-301000-
NORTHWEST AND NORTH CENTRAL SOUTH DAKOTA

CITY           SKY/WX    TMP DP  RH WIND       PRES   REMARKS
BUFFALO          N/A     66  50  56 SE9       29.74F
MOBRIDGE       MOCLDY    68  65  90 SE10      29.79F
$$

SDZ012>016-024>037-041>051-057-063-072>074-301000-
SOUTHWEST AND SOUTH CENTRAL SOUTH DAKOTA

CITY           SKY/WX    TMP DP  RH WIND       PRES   REMARKS
RAPID CTY ARPT CLEAR     66  45  46 CALM      29.87F
PIERRE         CLEAR     70  57  63 S8        29.83F
CUSTER         PTCLDY    66  37  34 W5        30.06F
ELLSWORTH AFB  PTCLDY    70  43  37 S6        29.85F
PHILIP         PTCLDY    71  52  50 CALM      29.84F
PINE RIDGE     PTCLDY    71  44  37 SW10G22   29.94S
WINNER         FAIR      72  58  61 S21G26    29.90S
$$

SDZ004>011-016>023-039-040-301000-
NORTHEAST SOUTH DAKOTA

CITY           SKY/WX    TMP DP  RH WIND       PRES   REMARKS
ABERDEEN       CLEAR     65  63  93 S13       29.85F
WATERTOWN      CLEAR     63  61  93 S13       29.92F
BROOKINGS      CLOUDY    63  59  88 S10       29.98S
SISSETON         N/A     70  63  78 S10       29.85S
$$

SDZ017-020-022-023-036>040-048>070-301000-
SOUTHEAST SOUTH DAKOTA

CITY           SKY/WX    TMP DP  RH WIND       PRES   REMARKS
SIOUX FALLS    CLOUDY    62  60  93 S9        29.99S
HURON          CLEAR     65  64  97 S12       29.89S
CHAMBERLAIN    CLEAR     67  62  83 S8        29.90S
MITCHELL       CLEAR     66  64  93 S10       29.93S
YANKTON        CLOUDY    64  63  94 S9        29.96S
$$

ABBREVIATIONS USED IN REMARKS
   TC - TEMPERATURE IN CELSIUS
  WCI - WIND CHILL INDEX
   HX - HEAT INDEX
  VSB - VISIBILITY



USA.gov is the U.S. government's official web portal to all federal, state and local government web resources and services.